This is the latest recevied weather packets stored in our database for station/object NO4D. If no packets are shown the sender has not sent any weather packets the latest 10 day(s).
| Time | Temp. | Humidity | Pressure | Rain* | Wind** | Luminosity | Snow |
|---|---|---|---|---|---|---|---|
| 1777556027 | 15.56° C | 99% | 1010.7 hPa | 0 mm | - | 366 W/m² | - |
| 1777555722 | 15.56° C | 99% | 1010.5 hPa | 0 mm | - | 235 W/m² | - |
| 1777555418 | 15.56° C | 99% | 1010.7 hPa | 0 mm | - | 147 W/m² | - |
| 1777555115 | 15.56° C | 99% | 1010.8 hPa | 0 mm | - | 195 W/m² | - |
| 1777554812 | 15.56° C | 99% | 1010.2 hPa | 0 mm | - | 136 W/m² | - |
| 1777554509 | 15° C | 99% | 1010.3 hPa | 0 mm | - | 311 W/m² | - |
| 1777554206 | 15° C | 99% | 1011 hPa | 0 mm | - | 118 W/m² | - |
| 1777553903 | 15° C | 99% | 1010.7 hPa | 0 mm | - | 44 W/m² | - |
| 1777553599 | 15° C | 99% | 1010.5 hPa | 0 mm | - | 35 W/m² | - |
| 1777553296 | 15° C | 99% | 1010.3 hPa | 0 mm | - | 29 W/m² | - |
| 1777552992 | 15° C | 99% | 1010.4 hPa | 0 mm | - | 25 W/m² | - |
| 1777552691 | 15° C | 99% | 1010.3 hPa | 0 mm | - | 32 W/m² | - |
| 1777552388 | 15° C | 99% | 1010.5 hPa | 0 mm | - | 38 W/m² | - |
| 1777552085 | 15° C | 99% | 1010.4 hPa | 0 mm | - | 46 W/m² | - |
| 1777551782 | 15° C | 99% | 1010.6 hPa | 0 mm | - | 72 W/m² | - |
| 1777551479 | 15° C | 99% | 1010.5 hPa | 0 mm | - | 90 W/m² | - |
| 1777551176 | 15° C | 99% | 1010.4 hPa | 0 mm | - | 64 W/m² | - |
| 1777550873 | 15° C | 99% | 1010.5 hPa | 0 mm | - | 35 W/m² | - |
| 1777550569 | 15° C | 99% | 1010.6 hPa | 1.78 mm | - | 16 W/m² | - |
| 1777550265 | 15° C | 99% | 1010.9 hPa | 1.78 mm | - | 9 W/m² | - |
| 1777549962 | 15° C | 99% | 1011.1 hPa | 0 mm | - | 9 W/m² | - |
| 1777549658 | 15° C | 99% | 1011.5 hPa | 1.27 mm | - | 6 W/m² | - |
| 1777549353 | 15° C | 99% | 1011.1 hPa | 3.05 mm | - | 8 W/m² | - |
| 1777549052 | 15° C | 99% | 1010.8 hPa | 3.05 mm | - | 8 W/m² | - |
| 1777548747 | 15° C | 99% | 1011.3 hPa | 3.05 mm | - | 6 W/m² | - |
* Rain latest hour (hover to see other rain measurements)
** Current wind speed in m/s (hover to see current wind gust speed)